Kimball, NE

3:15 PM MDT on April 28, 2017 (GMT -0600)
Kimball Municipal-Arraj

Weather History for KIBM - July, 2013

Change the Weather History Date:

Friday, July 12, 2013

  Actual Average (KSNY) Record (KSNY)
Temperature  
Mean Temperature 78 °F -  
Max Temperature 94 °F 90 °F 105 °F (1954)
Min Temperature 62 °F 57 °F 44 °F (1987)
Cooling Degree Days 13    
Growing Degree Days 28 (Base 50)    
Moisture  
Dew Point 53 °F    
Average Humidity 49    
Maximum Humidity 83    
Minimum Humidity 19    
Precipitation  
Precipitation 0.02 in - - ()
Sea Level Pressure  
Sea Level Pressure 30.01 in    
Wind  
Wind Speed 11 mph (NNW)    
Max Wind Speed 33 mph    
Max Gust Speed 50 mph    
Visibility 10 miles    
Events Rain , Thunderstorm    
Averages and records for this station are not official NWS values.
T = Trace of Precipitation, MM = Missing Value Source: NWS Daily Summary

Daily Weather History Graph

Daily Weather History Graph

Search for Another Location

Airport or City:

Trip Planner

Search our weather history database for the weather conditions in past years. The results will help you decide how hot, cold, wet, or windy it might be!

Date:

Astronomy

Jul. 12, 2013 Rise Set
Actual Time 6:32 AM CDT 9:27 PM CDT
Civil Twilight 5:59 AM CDT 10:00 PM CDT
Nautical Twilight 5:18 AM CDT 10:41 PM CDT
Astronomical Twilight 4:29 AM CDT 11:30 PM CDT
Moon 10:54 AM CDT (7/12) 11:35 PM CDT (7/12)
Length of Visible Light 16h 00m
Length of Day
14h 54m
Waxing Crescent, 17% of the Moon is Illuminated
Jul 12
Waxing Crescent
Jul 15
First Quarter
Jul 22
Full
Jul 29
Last Quarter
Aug 6
New

Hourly Weather History & Observations

Time (CDT) Temp. Dew Point Humidity Pressure Visibility Wind Dir Wind Speed Gust Speed Precip Events Conditions
12:15 AM 76.5 °F 56.5 °F 50% 29.98 in 10.0 mi SSE 13.8 mph - N/A   Clear
12:35 AM 75.2 °F 57.4 °F 54% 29.98 in 10.0 mi SSE 15.0 mph 19.6 mph N/A   Clear
12:55 AM 74.7 °F 57.6 °F 55% 29.98 in 10.0 mi SSE 13.8 mph - N/A   Clear
1:15 AM 73.8 °F 57.7 °F 57% 29.98 in 10.0 mi South 11.5 mph - N/A   Clear
1:35 AM 72.1 °F 57.7 °F 60% 29.98 in 10.0 mi SSE 10.4 mph - N/A   Clear
1:55 AM 71.6 °F 58.1 °F 62% 29.96 in 10.0 mi SSE 11.5 mph - N/A   Clear
2:15 AM 71.6 °F 58.1 °F 62% 29.95 in 10.0 mi SSE 11.5 mph - N/A   Clear
2:35 AM 70.2 °F 58.1 °F 65% 29.95 in 10.0 mi South 9.2 mph - N/A   Clear
2:55 AM 69.8 °F 58.1 °F 66% 29.94 in 10.0 mi SSE 10.4 mph - N/A   Clear
3:15 AM 69.6 °F 58.1 °F 67% 29.95 in 10.0 mi South 4.6 mph - N/A   Clear
3:35 AM 69.3 °F 58.3 °F 68% 29.94 in 10.0 mi South 4.6 mph - N/A   Clear
3:55 AM 69.3 °F 58.5 °F 68% 29.94 in 10.0 mi South 4.6 mph - N/A   Clear
4:15 AM 70.2 °F 59.0 °F 68% 29.95 in 10.0 mi WSW 3.5 mph - N/A   Clear
4:35 AM 68.5 °F 58.3 °F 70% 29.95 in 10.0 mi SSW 5.8 mph - N/A   Clear
4:55 AM 66.7 °F 58.1 °F 74% 29.95 in 10.0 mi SSW 6.9 mph - N/A   Clear
5:15 AM 66.0 °F 58.1 °F 76% 29.96 in 10.0 mi South 5.8 mph - N/A   Clear
5:35 AM 64.4 °F 57.6 °F 78% 29.97 in 10.0 mi Calm Calm - N/A   Clear
5:55 AM 64.8 °F 58.1 °F 79% 29.96 in 10.0 mi South 5.8 mph - N/A   Clear
6:15 AM 63.5 °F 56.8 °F 79% 29.97 in 10.0 mi Calm Calm - N/A   Clear
6:35 AM 62.6 °F 56.3 °F 80% 29.98 in 10.0 mi WNW 4.6 mph - N/A   Clear
6:55 AM 62.6 °F 57.0 °F 82% 29.98 in 10.0 mi WNW 4.6 mph - N/A   Clear
7:35 AM 66.9 °F 57.4 °F 71% 29.99 in 10.0 mi WNW 4.6 mph - N/A   Clear
7:55 AM 69.4 °F 56.7 °F 64% 29.99 in 10.0 mi WNW 5.8 mph - N/A   Clear
8:15 AM 76.1 °F 52.0 °F 43% 29.99 in 10.0 mi NW 10.4 mph - N/A   Clear
8:35 AM 77.0 °F 51.3 °F 40% 30.00 in 10.0 mi NW 10.4 mph - N/A   Clear
8:55 AM 78.6 °F 51.4 °F 39% 30.00 in 10.0 mi NNW 9.2 mph - N/A   Clear
9:15 AM 81.9 °F 47.3 °F 30% 30.00 in 10.0 mi NNW 15.0 mph - N/A   Clear
9:35 AM 83.5 °F 46.9 °F 28% 30.02 in 10.0 mi NNW 13.8 mph 19.6 mph N/A   Clear
9:55 AM 84.4 °F 45.1 °F 25% 30.02 in 10.0 mi NNW 18.4 mph - N/A   Clear
10:15 AM 85.1 °F 44.2 °F 24% 30.02 in 10.0 mi NNW 20.7 mph - N/A   Clear
10:35 AM 85.3 °F 44.8 °F 24% 30.02 in 10.0 mi North 17.3 mph 21.9 mph N/A   Clear
10:55 AM 86.0 °F 44.8 °F 24% 30.02 in 10.0 mi North 17.3 mph 24.2 mph N/A   Clear
11:15 AM 86.2 °F 44.6 °F 23% 30.02 in 10.0 mi North 13.8 mph 21.9 mph N/A   Clear
11:35 AM 87.4 °F 44.2 °F 22% 30.03 in 10.0 mi NNW 15.0 mph 18.4 mph N/A   Clear
11:55 AM 88.5 °F 45.3 °F 22% 30.03 in 10.0 mi NNW 15.0 mph - N/A   Clear
12:15 PM 88.9 °F 45.5 °F 22% 30.03 in 10.0 mi North 12.7 mph 18.4 mph N/A   Clear
12:35 PM 89.2 °F 45.5 °F 22% 30.03 in 10.0 mi North 11.5 mph 19.6 mph N/A   Clear
12:55 PM 89.8 °F 46.0 °F 22% 30.03 in 10.0 mi NNE 11.5 mph 17.3 mph N/A   Clear
1:15 PM 91.2 °F 45.7 °F 21% 30.03 in 10.0 mi North 10.4 mph 20.7 mph N/A   Clear
1:35 PM 91.4 °F 45.7 °F 21% 30.03 in 10.0 mi North 11.5 mph 24.2 mph N/A   Clear
1:55 PM 92.3 °F 45.5 °F 20% 30.03 in 10.0 mi North 10.4 mph - N/A   Clear
2:15 PM 92.5 °F 45.1 °F 19% 30.02 in 10.0 mi NNW 12.7 mph 17.3 mph N/A   Clear
2:35 PM 92.3 °F 45.5 °F 20% 30.02 in 10.0 mi NNE 8.1 mph 16.1 mph N/A   Clear
2:55 PM 91.6 °F 45.9 °F 21% 30.02 in 10.0 mi North 8.1 mph - N/A   Clear
3:15 PM 91.0 °F 45.9 °F 21% 30.02 in 10.0 mi WNW 4.6 mph - N/A   Clear
3:35 PM 92.1 °F 45.9 °F 20% 30.00 in 10.0 mi Calm Calm - N/A   Clear
3:55 PM 92.1 °F 46.8 °F 21% 30.00 in 10.0 mi NE 12.7 mph 17.3 mph N/A   Clear
4:15 PM 92.1 °F 46.9 °F 21% 30.00 in 10.0 mi ENE 6.9 mph - N/A   Clear
4:35 PM 90.9 °F 47.3 °F 22% 30.00 in 10.0 mi NNE 6.9 mph - N/A   Scattered Clouds
4:55 PM 94.1 °F 48.4 °F 21% 30.00 in 10.0 mi ENE 10.4 mph 16.1 mph N/A   Scattered Clouds
5:15 PM 93.9 °F 47.7 °F 20% 29.99 in 10.0 mi NE 6.9 mph - N/A   Clear
5:35 PM 92.5 °F 48.2 °F 22% 29.99 in 10.0 mi East 8.1 mph 20.7 mph N/A   Mostly Cloudy
5:55 PM 90.9 °F 50.2 °F 25% 29.99 in 10.0 mi ENE 10.4 mph 16.1 mph N/A   Scattered Clouds
6:15 PM 91.0 °F 49.8 °F 24% 29.99 in 10.0 mi ENE 8.1 mph - N/A   Clear
6:35 PM 90.7 °F 50.5 °F 25% 29.99 in 10.0 mi ENE 10.4 mph - N/A   Clear
6:55 PM 89.8 °F 50.5 °F 26% 30.00 in 10.0 mi ENE 6.9 mph - N/A   Mostly Cloudy
7:15 PM 79.0 °F 56.1 °F 45% 30.03 in 10.0 mi WNW 33.4 mph 49.5 mph N/A   Overcast
7:35 PM 72.1 °F 58.3 °F 62% 30.03 in 10.0 mi WNW 27.6 mph 38.0 mph N/A   Mostly Cloudy
7:55 PM 69.6 °F 61.7 °F 76% 30.05 in 10.0 mi WNW 24.2 mph 36.8 mph 0.01 in Rain , Thunderstorm Light Thunderstorms and Rain
8:15 PM 68.5 °F 63.3 °F 83% 30.05 in 10.0 mi WNW 20.7 mph 28.8 mph N/A Thunderstorm Mostly Cloudy
8:35 PM 68.5 °F 62.6 °F 81% 30.04 in 10.0 mi NW 20.7 mph 25.3 mph N/A Thunderstorm Scattered Clouds
8:55 PM 68.9 °F 62.1 °F 79% 30.06 in 10.0 mi NNW 17.3 mph 24.2 mph N/A Thunderstorm Scattered Clouds
9:15 PM 69.1 °F 60.8 °F 75% 30.06 in 10.0 mi NNW 17.3 mph 21.9 mph N/A Thunderstorm Thunderstorm
9:35 PM 69.4 °F 59.9 °F 72% 30.05 in 10.0 mi North 12.7 mph - N/A Thunderstorm Mostly Cloudy
9:55 PM 69.8 °F 59.9 °F 71% 30.06 in 10.0 mi North 8.1 mph - N/A   Mostly Cloudy
10:15 PM 68.4 °F 60.6 °F 76% 30.08 in 10.0 mi North 10.4 mph - N/A Rain Light Rain
10:35 PM 68.7 °F 61.3 °F 77% 30.13 in 10.0 mi WNW 15.0 mph 23.0 mph N/A Thunderstorm Thunderstorm
10:55 PM 69.1 °F 59.2 °F 71% 30.10 in 10.0 mi WNW 17.3 mph - N/A   Mostly Cloudy
11:15 PM 68.9 °F 59.5 °F 72% 30.08 in 10.0 mi NNW 8.1 mph 16.1 mph N/A Rain Light Rain
11:35 PM 67.5 °F 60.8 °F 79% 30.10 in 10.0 mi North 9.2 mph - N/A Rain Light Rain
11:55 PM 67.6 °F 61.3 °F 80% 30.13 in 10.0 mi Calm Calm - 0.01 in Rain Light Rain